Voltar ao catálogo

SL-12 R/B(2)

AtivoGEO
NORAD 26381·ROCKET BODY·🇷🇺 Russia

Lançado Jun 24, 2000 de Baikonur Cosmodrome

Loading…

TLE

AtualizadoSource: Space-Track

Época: Sep 14, 2026, 13:07 UTC

1 26381U 00031D   26257.54659896 -.00000196  00000-0  00000-0 0  9995
2 26381  14.6464   2.6759 0010028 122.2379 236.8473  0.99443130 95193

Acompanhe SL-12 R/B(2) em tempo real com AllMySat

Download on the App Store